Regional Weather Roundup
Issued by NWS Grand Forks, ND

Home | Current Version | Previous Version | Text Only | Print | Product List | Glossary Off
Versions: 1 2 3 4 5 6 7 8 9 10 11 12 13 14 15 16 17 18 19 20 21 22 23 24 25 26 27 28 29 30 31 32 33 34 35 36 37 38 39 40 41 42 43 44 45 46 47 48 49 50

000
ASUS43 KFGF 290010
RWRFGF
PRAIRIE TO PINES  WEATHER ROUNDUP
NATIONAL WEATHER SERVICE EASTERN NORTH DAKOTA/GRAND FORKS ND
700 PM CDT SAT MAR 28 2015

 **SATELLITE DATA USED TO AUGMENT SKY COVER AT AUTOMATED STATIONS**
 *****  WEATHER ACROSS EASTERN NORTH DAKOTA  *****

CITY           SKY/WX    TMP DP  RH WIND       PRES   REMARKS
GRAND FORKS    MOCLDY    49  32  52 S24G37    29.68F
6HR MIN TEMP:  44; 6HR MAX TEMP:  50;

GRAND FRKS AFB NOT AVBL
GRAND FRKS NWS   N/A     46 N/A N/A S20         N/A
DEVILS LAKE    CLOUDY    48  37  66 S22G29    29.55F
6HR MIN TEMP:  39; 6HR MAX TEMP:  50;

FARGO          MOCLDY    52  29  41 S24G40    29.76F
WAHPETON ARPT  PTCLDY    50  28  43 S22G30    29.81F
$$

 ***** WEATHER ACROSS CENTRAL AND WESTERN NORTH DAKOTA  *****

CITY           SKY/WX    TMP DP  RH WIND       PRES   REMARKS
BISMARCK       CLOUDY    63  36  36 S18G29    29.51F
6HR MIN TEMP:  53; 6HR MAX TEMP:  68;

MINOT          PTSUNNY   64  40  41 S22G37    29.38F
6HR MIN TEMP:  52; 6HR MAX TEMP:  69; 6HR PCP: TRACE;

JAMESTOWN      PTCLDY    50  34  54 S24G31    29.63F
6HR MIN TEMP:  40; 6HR MAX TEMP:  54;

MINOT AFB      CLOUDY    65  45  48 S16G28    29.35F
GARRISON         N/A     64  39  39 S18G25    29.41F
WILLISTON      CLOUDY    61  45  55 W33G46    29.51R
6HR MIN TEMP:  61; 6HR MAX TEMP:  79; 6HR PCP: TRACE;

DICKINSON      LGT RAIN  57  47  69 NW32G43   29.54R
6HR MIN TEMP:  57; 6HR MAX TEMP:  80; 6HR PCP: TRACE;

HETTINGER      PTSUNNY   73  31  21 S14       29.49F
6HR MIN TEMP:  67; 6HR MAX TEMP:  80;

$$

 *****  OTHER AIRPORT OBSERVATIONS IN OUR AREA  *****

CITY           SKY/WX    TMP DP  RH WIND       PRES   REMARKS
WALHALLA         N/A     48  37  66 S17G32    29.57F
GRAFTON AIRPOR NOT AVBL
VALLEY CITY AR FAIR      52  32  46 S22G30    29.67F
CANDO          NOT AVBL
CAVALIER APRT  FAIR      45  36  70 S21G29    29.60F
GWINNER        CLEAR     54  32  43 S23         N/A
SHEYENNE NWR     N/A     53  31  43 S20       29.95
ROLLA          FAIR      46  41  81 S20       29.50F
 ***** THE ABOVE OBSERVATIONS ARE NON NWS ARE NOT QUALITY
       CONTROLLED AND MAY MIS-REPORT RAIN FOR SNOW...
$$

  *****  WEATHER ACROSS NORTHERN MINNESOTA  *****

CITY           SKY/WX    TMP DP  RH WIND       PRES   REMARKS
FLAG ISLAND    CLOUDY    36  28  75 S17       29.73F
WARROAD        CLOUDY    43  28  56 S16G22    29.74F
ROSEAU         CLOUDY    43  30  61 S21G31    29.73F
HALLOCK        CLOUDY    46  30  53 S28G37    29.66F
THF RVR FALLS  CLOUDY    43  28  56 S17G30    29.75F
6HR MIN TEMP:  41; 6HR MAX TEMP:  46;

BAUDETTE       CLOUDY    42  24  49 S21G30    29.76F
6HR MIN TEMP:  40; 6HR MAX TEMP:  45;

WASKISH        CLOUDY    43  25  49 S7        29.81F
CROOKSTON      CLOUDY    46  30  53 S30G36    29.74F
STEPHEN NDAWN    N/A     46  30  53 S23         N/A
GREENBUSH NDAW   N/A     43  30  61 S20         N/A
$$
  *****  WEATHER ACROSS CENTRAL AND WEST MINNESOTA  *****

CITY           SKY/WX    TMP DP  RH WIND       PRES   REMARKS
FOSSTON        CLOUDY    39  27  60 S20G29    29.79F
BEMIDJI        MOCLDY    41  24  52 S20G28    29.84F
PARK RAPIDS    PTCLDY    42  25  50 S23G29    29.88F
6HR MIN TEMP:  42; 6HR MAX TEMP:  49;

ELBOW LAKE     FAIR      44  31  60 SE24G33   29.85F
WADENA         PTCLDY    39  27  60 S17G29    29.90F
DETROIT LAKES  MOCLDY    43  30  61 S22G30    29.84F
MOORHEAD       MOCLDY    50  28  43 S30G36    29.79F
FERGUS FALLS   MOCLDY    45  27  49 S23G32    29.87F
MORRIS MN      CLEAR     46  34  61 SE21G26   29.87F
STAPLES        PTCLDY    37  25  60 S15G22    29.93F
$$
  *****  WEATHER ELSEWHERE ACROSS MINNESOTA  *****

CITY           SKY/WX    TMP DP  RH WIND       PRES   REMARKS
DULUTH         PTCLDY    40  13  33 SW14      29.97F
6HR MIN TEMP:  38; 6HR MAX TEMP:  44;

INTRNTL FALLS  MOCLDY    42  16  34 VRB7G20   29.83F
6HR MIN TEMP:  40; 6HR MAX TEMP:  45;

ELY            PTCLDY    39   5  24 S10G21    29.92F
CLOQUET        PTCLDY    39  10  30 S14G22    29.98S
WHEATON        PTCLDY    46  30  53 SE15G24   29.85F
BRAINERD       PTCLDY    39  21  48 S16G30    29.96F
6HR MIN TEMP:  39; 6HR MAX TEMP:  44;

HIBBING        PTCLDY    40  15  36 SW12G20   29.93F
6HR MIN TEMP:  39; 6HR MAX TEMP:  44;

ALEXANDRIA     PTCLDY    42  27  55 S22G30    29.91F
6HR MIN TEMP:  37; 6HR MAX TEMP:  44;

SAINT CLOUD    CLEAR     41  22  46 S16G26    29.99F
6HR MIN TEMP:  40; 6HR MAX TEMP:  43;

MINNEAPOLIS    PTCLDY    39  21  48 S16G24    30.08F
6HR MIN TEMP:  38; 6HR MAX TEMP:  41;

$$

  *****  WEATHER ACROSS SOUTH DAKOTA  *****

CITY           SKY/WX    TMP DP  RH WIND       PRES   REMARKS
SIOUX FALLS    CLEAR     51  27  39 S21G32    29.90F
6HR MIN TEMP:  45; 6HR MAX TEMP:  53;

BROOKINGS      NOT AVBL
WATERTOWN      CLEAR     50  29  44 S22G30    29.82F
6HR MIN TEMP:  44; 6HR MAX TEMP:  52;

HURON          CLEAR     56  30  37 S23G33    29.78F
6HR MIN TEMP:  47; 6HR MAX TEMP:  57;

SISSETON         N/A     51  31  46 S18       29.80F
ABERDEEN       CLEAR     56  31  38 S23G32    29.73F
6HR MIN TEMP:  48; 6HR MAX TEMP:  58;

MITCHELL       CLEAR     56  33  42 S30G36    29.83F
PIERRE         SUNNY     66  36  32 SE18      29.60F
6HR MIN TEMP:  56; 6HR MAX TEMP:  74;

MOBRIDGE       MOSUNNY   64  36  35 S21G29    29.57F
RAPID CITY     PTSUNNY   82  21  10 W24G31    29.55F
6HR MIN TEMP:  72; 6HR MAX TEMP:  83;

$$

  *****  SOME WEATHER IN NEARBY STATES *****

CITY           SKY/WX    TMP DP  RH WIND       PRES   REMARKS
GLASGOW MT     CLOUDY    54  33  45 W25G33    29.66R
6HR MIN TEMP:  50; 6HR MAX TEMP:  75; 6HR PCP:  0.03;

GREAT FALLS MT CLOUDY    48  25  40 W28G48    29.94R
6HR MIN TEMP:  48; 6HR MAX TEMP:  56; 6HR PCP: TRACE;

CHEYENNE WY    SUNNY     70  21  15 W20G32    29.94S
6HR MIN TEMP:  69; 6HR MAX TEMP:  75;

SCOTTSBLUFF NE SUNNY     77  27  15 W12       29.75F
6HR MIN TEMP:  74; 6HR MAX TEMP:  82;

OMAHA NE       CLEAR     53  30  41 S22       30.03F
6HR MIN TEMP:  48; 6HR MAX TEMP:  54;

DES MOINES IA  PTCLDY    48  19  31 S15       30.13S
6HR MIN TEMP:  45; 6HR MAX TEMP:  50;

DAVENPORT IA   CLEAR     39  11  31 SE13      30.23F
6HR MIN TEMP:  36; 6HR MAX TEMP:  42;

CHICAGO IL     CLEAR     31  10  41 SE9       30.28S WCI  23
6HR MIN TEMP:  31; 6HR MAX TEMP:  36;

EAU CLAIRE WI  CLEAR     37   8  30 SW14      30.12F
6HR MIN TEMP:  37; 6HR MAX TEMP:  43;

LA CROSSE WI   CLEAR     40  14  34 S12       30.18F
6HR MIN TEMP:  39; 6HR MAX TEMP:  43;

$$

  *****  SOME NATIONAL WEATHER *****

CITY           SKY/WX    TMP DP  RH WIND       PRES   REMARKS
LA GUARDIA NY  MOCLDY    33  21  61 NW20G28   30.00R WCI  21
6HR MIN TEMP:  33; 6HR MAX TEMP:  38; 6HR PCP: TRACE;

RALEIGH NC     CLEAR     40   9  28 VRB6      30.15R
6HR MIN TEMP:  40; 6HR MAX TEMP:  46;

ATLANTA GA     PTCLDY    47  15  27 W9        30.17R
6HR MIN TEMP:  47; 6HR MAX TEMP:  53;

NEW ORLEANS LA PTCLDY    64  46  52 S14       30.19R
6HR MIN TEMP:  64; 6HR MAX TEMP:  70;

OKLAHOMA CITY  CLEAR     75  45  34 S8        29.97R
6HR MIN TEMP:  68; 6HR MAX TEMP:  78;

ALBUQUERQUE NM SUNNY     80  17   9 NW8       30.08S
6HR MIN TEMP:  68; 6HR MAX TEMP:  81;

SALT LAKE CITY MOSUNNY   70  27  20 NW17      30.11S
6HR MIN TEMP:  68; 6HR MAX TEMP:  74;

LOS ANGELES CA MOSUNNY   67  58  72 W12       30.01S



USA.gov is the U.S. government's official web portal to all federal, state and local government web resources and services.